Time,TemperatureF,DewpointF,PressureIn,WindDirection,WindDirectionDegrees,WindSpeedMPH,WindSpeedGustMPH,Humidity,HourlyPrecipIn,Conditions,Clouds,dailyrainin,SoftwareType,DateUTC
2013-03-09 00:04:00,37.6,33.5,30.42,North,0,3.1,6.0,85,0.00,,,0.00,pywws,2013-03-09 00:04:00,
2013-03-09 00:09:00,37.4,33.3,30.42,North,0,0.7,3.8,85,0.00,,,0.00,pywws,2013-03-09 00:09:00,
2013-03-09 00:14:00,37.6,33.5,30.42,NE,45,2.2,5.4,85,0.00,,,0.00,pywws,2013-03-09 00:14:00,
2013-03-09 00:19:00,37.4,33.3,30.42,North,0,2.2,6.0,85,0.00,,,0.00,pywws,2013-03-09 00:19:00,
2013-03-09 00:24:00,37.6,33.5,30.42,WNW,292,1.6,4.5,85,0.00,,,0.00,pywws,2013-03-09 00:24:00,
2013-03-09 00:29:00,37.4,33.3,30.42,North,0,3.1,6.9,85,0.00,,,0.00,pywws,2013-03-09 00:29:00,
2013-03-09 00:34:00,37.2,33.1,30.42,North,0,3.1,6.0,85,0.00,,,0.00,pywws,2013-03-09 00:34:00,
2013-03-09 00:39:00,37.2,33.1,30.42,North,0,3.1,6.0,85,0.00,,,0.00,pywws,2013-03-09 00:39:00,
2013-03-09 00:44:00,37.4,33.3,30.42,NW,315,4.5,10.7,85,0.00,,,0.00,pywws,2013-03-09 00:44:00,
2013-03-09 00:49:00,43.5,39.3,30.43,North,0,3.8,10.7,85,0.00,,,0.00,pywws,2013-03-09 00:49:00,
2013-03-09 00:54:00,37.4,33.3,30.42,NW,315,2.2,4.5,85,0.00,,,0.00,pywws,2013-03-09 00:54:00,
2013-03-09 00:59:00,37.4,33.6,30.43,North,0,1.6,5.4,86,0.00,,,0.00,pywws,2013-03-09 00:59:00,
2013-03-09 01:04:00,37.2,33.4,30.42,NE,45,1.6,5.4,86,0.00,,,0.00,pywws,2013-03-09 01:04:00,
2013-03-09 01:09:00,37.2,33.4,30.42,North,0,3.8,9.2,86,0.00,,,0.00,pywws,2013-03-09 01:09:00,
2013-03-09 01:14:00,37.0,33.2,30.42,NW,315,0.7,3.8,86,0.00,,,0.00,pywws,2013-03-09 01:14:00,
2013-03-09 01:19:00,37.0,33.5,30.43,NNE,22,1.6,2.2,87,0.00,,,0.00,pywws,2013-03-09 01:19:00,
2013-03-09 01:24:00,36.9,33.6,30.42,North,0,1.6,4.5,88,0.00,,,0.00,pywws,2013-03-09 01:24:00,
2013-03-09 01:29:00,36.7,33.5,30.42,North,0,0.7,4.5,88,0.00,,,0.00,pywws,2013-03-09 01:29:00,
2013-03-09 01:34:00,36.7,33.5,30.42,North,0,1.6,4.5,88,0.00,,,0.00,pywws,2013-03-09 01:34:00,
2013-03-09 01:39:00,36.7,33.5,30.42,North,0,1.6,4.5,88,0.00,,,0.00,pywws,2013-03-09 01:39:00,
2013-03-09 01:44:00,36.5,33.9,30.42,North,0,0.7,3.1,90,0.00,,,0.00,pywws,2013-03-09 01:44:00,
2013-03-09 01:49:00,38.1,35.5,30.42,North,0,2.2,4.5,90,0.01,,,0.01,pywws,2013-03-09 01:49:00,
2013-03-09 01:54:00,36.3,33.7,30.43,North,0,1.6,3.1,90,0.01,,,0.01,pywws,2013-03-09 01:54:00,
2013-03-09 01:59:00,36.3,33.7,30.43,North,0,1.6,3.1,90,0.01,,,0.01,pywws,2013-03-09 01:59:00,
2013-03-09 02:04:00,36.5,34.1,30.43,North,0,2.2,6.0,91,0.01,,,0.01,pywws,2013-03-09 02:04:00,
2013-03-09 02:09:00,36.3,33.9,30.43,North,0,0.7,3.1,91,0.01,,,0.01,pywws,2013-03-09 02:09:00,
2013-03-09 02:14:00,36.3,33.9,30.43,West,270,2.2,8.3,91,0.01,,,0.01,pywws,2013-03-09 02:14:00,
2013-03-09 02:19:00,36.5,34.1,30.43,NW,315,1.6,3.8,91,0.01,,,0.01,pywws,2013-03-09 02:19:00,
2013-03-09 02:24:00,36.3,33.7,30.43,North,0,2.2,3.8,90,0.01,,,0.01,pywws,2013-03-09 02:24:00,
2013-03-09 02:29:00,36.5,34.1,30.42,North,0,0.7,3.8,91,0.01,,,0.01,pywws,2013-03-09 02:29:00,
2013-03-09 02:34:00,36.3,33.9,30.43,North,0,1.6,4.5,91,0.01,,,0.01,pywws,2013-03-09 02:34:00,
2013-03-09 02:39:00,36.3,33.9,30.42,North,0,1.6,4.5,91,0.01,,,0.01,pywws,2013-03-09 02:39:00,
2013-03-09 02:44:00,36.5,34.1,30.43,North,0,2.2,6.0,91,0.01,,,0.01,pywws,2013-03-09 02:44:00,
2013-03-09 02:49:00,36.5,34.1,30.43,NNE,22,3.1,5.4,91,0.00,,,0.01,pywws,2013-03-09 02:49:00,
2013-03-09 02:54:00,36.7,34.0,30.42,North,0,1.6,6.9,90,0.00,,,0.01,pywws,2013-03-09 02:54:00,
2013-03-09 02:59:00,36.7,34.0,30.42,North,0,3.1,5.4,90,0.00,,,0.01,pywws,2013-03-09 02:59:00,
2013-03-09 03:04:00,36.5,33.9,30.42,North,0,2.2,4.5,90,0.00,,,0.01,pywws,2013-03-09 03:04:00,
2013-03-09 03:09:00,36.9,34.2,30.42,WNW,292,3.8,7.6,90,0.00,,,0.01,pywws,2013-03-09 03:09:00,
2013-03-09 03:14:00,36.9,34.2,30.42,North,0,2.2,6.0,90,0.00,,,0.01,pywws,2013-03-09 03:14:00,
2013-03-09 03:19:00,36.7,34.0,30.42,NW,315,1.6,3.1,90,0.00,,,0.01,pywws,2013-03-09 03:19:00,
2013-03-09 03:24:00,36.7,34.0,30.42,North,0,2.2,5.4,90,0.00,,,0.01,pywws,2013-03-09 03:24:00,
2013-03-09 03:29:00,36.7,34.0,30.42,NW,315,3.1,6.9,90,0.00,,,0.01,pywws,2013-03-09 03:29:00,
2013-03-09 03:34:00,36.7,34.0,30.42,NNE,22,4.5,9.2,90,0.00,,,0.01,pywws,2013-03-09 03:34:00,
2013-03-09 03:39:00,36.7,34.0,30.42,NNE,22,4.5,9.2,90,0.00,,,0.01,pywws,2013-03-09 03:39:00,
2013-03-09 03:44:00,36.9,34.2,30.42,NE,45,3.8,10.7,90,0.00,,,0.01,pywws,2013-03-09 03:44:00,
2013-03-09 03:49:00,36.5,34.1,30.42,North,0,2.2,3.8,91,0.00,,,0.01,pywws,2013-03-09 03:49:00,
2013-03-09 03:54:00,36.7,34.3,30.42,North,0,3.8,8.3,91,0.00,,,0.01,pywws,2013-03-09 03:54:00,
2013-03-09 03:59:00,36.5,34.1,30.42,West,270,3.1,6.0,91,0.00,,,0.01,pywws,2013-03-09 03:59:00,
2013-03-09 04:04:00,36.5,34.1,30.42,North,0,3.1,6.0,91,0.00,,,0.01,pywws,2013-03-09 04:04:00,
2013-03-09 04:09:00,36.5,34.1,30.42,NE,45,3.8,9.2,91,0.00,,,0.01,pywws,2013-03-09 04:09:00,
2013-03-09 04:14:00,36.5,34.4,30.42,North,0,1.6,5.4,92,0.00,,,0.01,pywws,2013-03-09 04:14:00,
2013-03-09 04:19:00,34.0,31.9,30.42,NW,315,3.1,6.9,92,0.00,,,0.01,pywws,2013-03-09 04:19:00,
2013-03-09 04:24:00,36.5,34.4,30.42,North,0,2.2,4.5,92,0.00,,,0.01,pywws,2013-03-09 04:24:00,
2013-03-09 04:29:00,36.7,34.6,30.42,North,0,3.1,11.4,92,0.00,,,0.01,pywws,2013-03-09 04:29:00,
2013-03-09 04:34:00,36.5,34.4,30.42,North,0,1.6,6.9,92,0.00,,,0.01,pywws,2013-03-09 04:34:00,
2013-03-09 04:39:00,36.5,34.4,30.42,North,0,1.6,6.9,92,0.00,,,0.01,pywws,2013-03-09 04:39:00,
2013-03-09 04:44:00,36.7,34.6,30.42,NE,45,3.1,6.0,92,0.00,,,0.01,pywws,2013-03-09 04:44:00,
2013-03-09 04:49:00,36.7,34.9,30.42,North,0,2.2,6.9,93,0.00,,,0.01,pywws,2013-03-09 04:49:00,
2013-03-09 04:54:00,36.7,34.9,30.42,North,0,2.2,3.8,93,0.00,,,0.01,pywws,2013-03-09 04:54:00,
2013-03-09 04:59:00,36.7,34.9,30.42,West,270,3.1,6.9,93,0.00,,,0.01,pywws,2013-03-09 04:59:00,
2013-03-09 05:04:00,36.7,34.9,30.42,South,180,3.1,7.6,93,0.00,,,0.01,pywws,2013-03-09 05:04:00,
2013-03-09 05:09:00,36.7,34.9,30.43,NE,45,2.2,6.9,93,0.00,,,0.01,pywws,2013-03-09 05:09:00,
2013-03-09 05:14:00,36.7,34.9,30.43,North,0,2.2,6.0,93,0.00,,,0.01,pywws,2013-03-09 05:14:00,
2013-03-09 05:19:00,36.9,35.0,30.43,NE,45,3.8,8.3,93,0.00,,,0.01,pywws,2013-03-09 05:19:00,
2013-03-09 05:24:00,30.4,28.6,30.43,North,0,3.1,6.9,93,0.00,,,0.01,pywws,2013-03-09 05:24:00,
2013-03-09 05:29:00,36.9,35.0,30.43,NE,45,2.2,6.0,93,0.00,,,0.01,pywws,2013-03-09 05:29:00,
2013-03-09 05:34:00,36.9,35.0,30.43,North,0,1.6,3.8,93,0.00,,,0.01,pywws,2013-03-09 05:34:00,
2013-03-09 05:39:00,36.9,35.0,30.43,North,0,1.6,3.8,93,0.00,,,0.01,pywws,2013-03-09 05:39:00,
2013-03-09 05:44:00,36.9,35.0,30.43,North,0,1.6,4.5,93,0.00,,,0.01,pywws,2013-03-09 05:44:00,
2013-03-09 05:49:00,36.9,35.0,30.43,North,0,2.2,5.4,93,0.00,,,0.01,pywws,2013-03-09 05:49:00,
2013-03-09 05:54:00,37.0,35.2,30.43,North,0,3.8,7.6,93,0.00,,,0.01,pywws,2013-03-09 05:54:00,
2013-03-09 05:59:00,37.9,36.1,30.43,NW,315,1.6,4.5,93,0.00,,,0.01,pywws,2013-03-09 05:59:00,
2013-03-09 06:04:00,36.9,35.0,30.44,WNW,292,2.2,7.6,93,0.00,,,0.01,pywws,2013-03-09 06:04:00,
2013-03-09 06:09:00,36.0,34.1,30.44,North,0,3.1,6.9,93,0.00,,,0.01,pywws,2013-03-09 06:09:00,
2013-03-09 06:14:00,37.0,35.2,30.44,North,0,2.2,5.4,93,0.00,,,0.01,pywws,2013-03-09 06:14:00,
2013-03-09 06:19:00,37.0,35.2,30.44,North,0,0.7,3.8,93,0.00,,,0.01,pywws,2013-03-09 06:19:00,
2013-03-09 06:24:00,37.0,35.2,30.44,NW,315,1.6,3.8,93,0.00,,,0.01,pywws,2013-03-09 06:24:00,
2013-03-09 06:29:00,37.0,35.2,30.44,North,0,3.1,6.0,93,0.00,,,0.01,pywws,2013-03-09 06:29:00,
2013-03-09 06:34:00,37.0,35.2,30.44,West,270,0.7,3.1,93,0.00,,,0.01,pywws,2013-03-09 06:34:00,
2013-03-09 06:39:00,37.0,35.2,30.45,West,270,0.7,3.1,93,0.00,,,0.01,pywws,2013-03-09 06:39:00,
2013-03-09 06:44:00,37.0,35.2,30.45,North,0,1.6,3.8,93,0.00,,,0.01,pywws,2013-03-09 06:44:00,
2013-03-09 06:49:00,37.0,35.2,30.45,North,0,2.2,4.5,93,0.00,,,0.01,pywws,2013-03-09 06:49:00,
2013-03-09 06:54:00,37.0,35.2,30.45,NE,45,1.6,2.2,93,0.00,,,0.01,pywws,2013-03-09 06:54:00,
2013-03-09 06:59:00,37.0,35.5,30.45,North,0,2.2,5.4,94,0.00,,,0.01,pywws,2013-03-09 06:59:00,
2013-03-09 07:04:00,37.2,35.4,30.45,North,0,1.6,3.1,93,0.00,,,0.01,pywws,2013-03-09 07:04:00,
2013-03-09 07:09:00,37.2,35.4,30.46,NW,315,3.1,5.4,93,0.00,,,0.01,pywws,2013-03-09 07:09:00,
2013-03-09 07:14:00,37.4,35.8,30.46,North,0,1.6,5.4,94,0.00,,,0.01,pywws,2013-03-09 07:14:00,
2013-03-09 07:19:00,37.6,35.7,30.47,North,0,1.6,3.8,93,0.00,,,0.01,pywws,2013-03-09 07:19:00,
2013-03-09 07:24:00,37.4,35.6,30.47,North,-999,1.6,3.1,93,0.00,,,0.01,pywws,2013-03-09 07:24:00,
2013-03-09 07:29:00,37.4,35.6,30.47,North,0,1.6,5.4,93,0.00,,,0.01,pywws,2013-03-09 07:29:00,
2013-03-09 07:34:00,37.6,35.7,30.47,NW,315,0.7,3.8,93,0.00,,,0.01,pywws,2013-03-09 07:34:00,
2013-03-09 07:39:00,37.6,35.7,30.47,NW,315,0.7,3.8,93,0.00,,,0.01,pywws,2013-03-09 07:39:00,
2013-03-09 07:44:00,37.6,36.0,30.47,North,0,1.6,4.5,94,0.00,,,0.01,pywws,2013-03-09 07:44:00,
2013-03-09 07:49:00,37.6,36.0,30.47,North,-999,3.8,7.6,94,0.00,,,0.01,pywws,2013-03-09 07:49:00,
2013-03-09 07:54:00,37.8,36.2,30.47,NNE,22,2.2,4.5,94,0.00,,,0.01,pywws,2013-03-09 07:54:00,
2013-03-09 07:59:00,37.6,36.0,30.47,North,0,0.7,4.5,94,0.00,,,0.01,pywws,2013-03-09 07:59:00,
2013-03-09 08:04:00,37.8,36.2,30.47,NE,45,3.8,6.9,94,0.00,,,0.01,pywws,2013-03-09 08:04:00,
2013-03-09 08:09:00,37.8,36.2,30.47,NE,45,2.2,4.5,94,0.00,,,0.01,pywws,2013-03-09 08:09:00,
2013-03-09 08:14:00,37.8,36.2,30.48,South,180,0.7,3.1,94,0.00,,,0.01,pywws,2013-03-09 08:14:00,
2013-03-09 08:19:00,37.8,35.9,30.48,NW,315,2.2,4.5,93,0.00,,,0.01,pywws,2013-03-09 08:19:00,
2013-03-09 08:24:00,37.9,36.4,30.48,North,0,2.2,4.5,94,0.00,,,0.01,pywws,2013-03-09 08:24:00,
2013-03-09 08:29:00,37.9,36.4,30.48,NW,315,2.2,4.5,94,0.00,,,0.01,pywws,2013-03-09 08:29:00,
2013-03-09 08:34:00,38.1,36.3,30.48,NW,315,2.2,4.5,93,0.00,,,0.01,pywws,2013-03-09 08:34:00,
2013-03-09 08:39:00,38.1,36.3,30.49,NW,315,2.2,4.5,93,0.00,,,0.01,pywws,2013-03-09 08:39:00,
2013-03-09 08:44:00,38.1,36.3,30.49,SE,135,2.2,6.9,93,0.00,,,0.01,pywws,2013-03-09 08:44:00,
2013-03-09 08:49:00,38.3,36.5,30.49,WNW,292,1.6,3.8,93,0.00,,,0.01,pywws,2013-03-09 08:49:00,
2013-03-09 08:54:00,38.1,36.3,30.49,SE,135,1.6,3.1,93,0.00,,,0.01,pywws,2013-03-09 08:54:00,
2013-03-09 08:59:00,38.3,36.5,30.50,North,0,0.7,5.4,93,0.00,,,0.01,pywws,2013-03-09 08:59:00,
2013-03-09 09:04:00,38.3,36.5,30.50,SW,225,2.2,6.0,93,0.00,,,0.01,pywws,2013-03-09 09:04:00,
2013-03-09 09:09:00,38.3,36.5,30.50,NE,45,1.6,3.8,93,0.00,,,0.01,pywws,2013-03-09 09:09:00,
2013-03-09 09:14:00,38.5,36.4,30.50,North,0,0.7,3.1,92,0.00,,,0.01,pywws,2013-03-09 09:14:00,
2013-03-09 09:19:00,38.3,36.2,30.50,North,0,1.6,3.1,92,0.00,,,0.01,pywws,2013-03-09 09:19:00,
2013-03-09 09:24:00,38.5,36.4,30.51,North,0,1.6,4.5,92,0.00,,,0.01,pywws,2013-03-09 09:24:00,
2013-03-09 09:29:00,38.3,36.2,30.50,NW,315,0.7,2.2,92,0.00,,,0.01,pywws,2013-03-09 09:29:00,
2013-03-09 09:34:00,38.5,36.4,30.51,North,0,0.7,3.1,92,0.00,,,0.01,pywws,2013-03-09 09:34:00,
2013-03-09 09:39:00,38.5,36.4,30.51,North,0,0.7,3.1,92,0.00,,,0.01,pywws,2013-03-09 09:39:00,
2013-03-09 09:44:00,38.5,36.4,30.51,NE,45,1.6,3.8,92,0.00,,,0.01,pywws,2013-03-09 09:44:00,
2013-03-09 09:49:00,38.5,36.4,30.51,NE,45,2.2,6.9,92,0.00,,,0.01,pywws,2013-03-09 09:49:00,
2013-03-09 09:54:00,38.7,36.5,30.51,North,0,3.1,6.0,92,0.00,,,0.01,pywws,2013-03-09 09:54:00,
2013-03-09 09:59:00,38.7,36.5,30.52,North,0,2.2,4.5,92,0.00,,,0.01,pywws,2013-03-09 09:59:00,
2013-03-09 10:04:00,38.7,36.3,30.52,NE,45,2.2,3.8,91,0.00,,,0.01,pywws,2013-03-09 10:04:00,
2013-03-09 10:09:00,38.7,36.3,30.52,NE,45,1.6,3.8,91,0.00,,,0.01,pywws,2013-03-09 10:09:00,
2013-03-09 10:14:00,38.7,36.3,30.52,SE,135,1.6,4.5,91,0.00,,,0.01,pywws,2013-03-09 10:14:00,
2013-03-09 10:19:00,34.2,31.8,30.52,North,-999,0.0,2.2,91,0.00,,,0.01,pywws,2013-03-09 10:19:00,
2013-03-09 10:24:00,38.8,36.4,30.52,West,270,0.7,4.5,91,0.00,,,0.01,pywws,2013-03-09 10:24:00,
2013-03-09 10:29:00,38.7,36.3,30.52,South,180,3.1,6.0,91,0.00,,,0.01,pywws,2013-03-09 10:29:00,
2013-03-09 10:34:00,38.8,36.4,30.52,North,-999,0.0,2.2,91,0.00,,,0.01,pywws,2013-03-09 10:34:00,
2013-03-09 10:39:00,38.8,36.4,30.53,North,-999,0.0,2.2,91,0.00,,,0.01,pywws,2013-03-09 10:39:00,
2013-03-09 10:44:00,38.8,36.4,30.53,North,0,0.7,2.2,91,0.00,,,0.01,pywws,2013-03-09 10:44:00,
2013-03-09 10:49:00,39.0,36.6,30.53,North,-999,0.0,2.2,91,0.00,,,0.01,pywws,2013-03-09 10:49:00,
2013-03-09 10:54:00,38.8,36.7,30.53,North,0,0.7,3.1,92,0.00,,,0.01,pywws,2013-03-09 10:54:00,
2013-03-09 10:59:00,38.8,36.7,30.53,North,0,0.7,3.1,92,0.00,,,0.01,pywws,2013-03-09 10:59:00,
2013-03-09 11:04:00,46.4,44.2,30.53,North,0,2.2,5.4,92,0.00,,,0.01,pywws,2013-03-09 11:04:00,
2013-03-09 11:09:00,39.0,36.9,30.54,South,180,2.2,6.0,92,0.00,,,0.01,pywws,2013-03-09 11:09:00,
2013-03-09 11:14:00,45.9,43.7,30.54,NE,45,2.2,5.4,92,0.00,,,0.01,pywws,2013-03-09 11:14:00,
2013-03-09 11:19:00,39.0,36.9,30.54,North,0,0.7,3.1,92,0.00,,,0.01,pywws,2013-03-09 11:19:00,
2013-03-09 11:24:00,39.0,36.9,30.54,North,0,0.7,6.0,92,0.00,,,0.01,pywws,2013-03-09 11:24:00,
2013-03-09 11:29:00,39.2,37.1,30.54,West,270,1.6,4.5,92,0.00,,,0.01,pywws,2013-03-09 11:29:00,
2013-03-09 11:34:00,39.0,36.9,30.54,North,0,2.2,4.5,92,0.00,,,0.01,pywws,2013-03-09 11:34:00,
2013-03-09 11:39:00,39.0,36.9,30.54,North,0,2.2,4.5,92,0.00,,,0.01,pywws,2013-03-09 11:39:00,
2013-03-09 11:44:00,33.4,31.1,30.54,NW,315,2.2,5.4,91,0.00,,,0.01,pywws,2013-03-09 11:44:00,
2013-03-09 11:49:00,39.4,37.3,30.54,North,0,1.6,3.8,92,0.00,,,0.01,pywws,2013-03-09 11:49:00,
2013-03-09 11:54:00,39.6,37.4,30.54,North,-999,0.0,2.2,92,0.00,,,0.01,pywws,2013-03-09 11:54:00,
2013-03-09 11:59:00,39.7,37.3,30.54,West,270,0.7,3.8,91,0.00,,,0.01,pywws,2013-03-09 11:59:00,
2013-03-09 12:04:00,39.7,37.3,30.55,NE,45,0.7,4.5,91,0.00,,,0.01,pywws,2013-03-09 12:04:00,
2013-03-09 12:09:00,39.7,37.3,30.55,NE,45,0.7,3.8,91,0.00,,,0.01,pywws,2013-03-09 12:09:00,
2013-03-09 12:14:00,39.7,37.3,30.55,North,0,0.7,3.8,91,0.00,,,0.01,pywws,2013-03-09 12:14:00,
2013-03-09 12:19:00,39.9,37.5,30.55,North,-999,0.7,3.1,91,0.00,,,0.01,pywws,2013-03-09 12:19:00,
2013-03-09 12:24:00,40.1,37.7,30.55,NE,45,3.8,7.6,91,0.00,,,0.01,pywws,2013-03-09 12:24:00,
2013-03-09 12:29:00,40.1,37.4,30.55,West,270,0.7,3.8,90,0.00,,,0.01,pywws,2013-03-09 12:29:00,
2013-03-09 12:34:00,40.1,37.4,30.55,NNE,22,0.7,3.1,90,0.00,,,0.01,pywws,2013-03-09 12:34:00,
2013-03-09 12:39:00,40.1,37.4,30.55,NNE,22,0.7,3.1,90,0.00,,,0.01,pywws,2013-03-09 12:39:00,
2013-03-09 12:44:00,40.5,37.8,30.55,West,270,1.6,3.8,90,0.00,,,0.01,pywws,2013-03-09 12:44:00,
2013-03-09 12:49:00,40.5,37.8,30.55,SE,135,1.6,4.5,90,0.00,,,0.01,pywws,2013-03-09 12:49:00,
2013-03-09 12:54:00,40.6,37.9,30.55,NW,315,2.2,4.5,90,0.00,,,0.01,pywws,2013-03-09 12:54:00,
2013-03-09 12:59:00,40.6,37.9,30.55,North,0,0.7,2.2,90,0.00,,,0.01,pywws,2013-03-09 12:59:00,
2013-03-09 13:04:00,40.6,37.7,30.55,NE,45,0.7,3.8,89,0.00,,,0.01,pywws,2013-03-09 13:04:00,
2013-03-09 13:09:00,40.6,37.7,30.55,SE,135,2.2,5.4,89,0.00,,,0.01,pywws,2013-03-09 13:09:00,
2013-03-09 13:14:00,40.6,37.7,30.55,West,270,0.7,3.1,89,0.00,,,0.01,pywws,2013-03-09 13:14:00,
2013-03-09 13:19:00,40.6,37.7,30.55,NW,315,2.2,5.4,89,0.00,,,0.01,pywws,2013-03-09 13:19:00,
2013-03-09 13:24:00,42.8,39.8,30.54,NE,45,2.2,5.4,89,0.00,,,0.01,pywws,2013-03-09 13:24:00,
2013-03-09 13:29:00,40.6,37.4,30.54,NE,45,0.7,3.1,88,0.00,,,0.01,pywws,2013-03-09 13:29:00,
2013-03-09 13:34:00,40.6,37.4,30.54,NW,315,2.2,7.6,88,0.00,,,0.01,pywws,2013-03-09 13:34:00,
2013-03-09 13:39:00,40.6,37.4,30.54,NW,315,2.2,7.6,88,0.00,,,0.01,pywws,2013-03-09 13:39:00,
2013-03-09 13:44:00,40.6,37.4,30.54,West,270,0.7,3.1,88,0.00,,,0.01,pywws,2013-03-09 13:44:00,
2013-03-09 13:49:00,40.8,37.5,30.55,North,0,1.6,3.8,88,0.00,,,0.01,pywws,2013-03-09 13:49:00,
2013-03-09 13:54:00,40.6,37.4,30.54,NE,45,1.6,4.5,88,0.00,,,0.01,pywws,2013-03-09 13:54:00,
2013-03-09 13:59:00,40.6,37.4,30.54,NW,315,1.6,4.5,88,0.00,,,0.01,pywws,2013-03-09 13:59:00,
2013-03-09 14:04:00,40.8,37.5,30.54,NE,45,0.7,2.2,88,0.00,,,0.01,pywws,2013-03-09 14:04:00,
2013-03-09 14:09:00,41.0,37.7,30.54,WNW,292,1.6,5.4,88,0.00,,,0.01,pywws,2013-03-09 14:09:00,
2013-03-09 14:14:00,40.8,37.5,30.54,NW,315,0.7,3.1,88,0.00,,,0.01,pywws,2013-03-09 14:14:00,
2013-03-09 14:19:00,40.8,37.5,30.54,NE,45,1.6,4.5,88,0.00,,,0.01,pywws,2013-03-09 14:19:00,
2013-03-09 14:24:00,40.8,37.5,30.54,NE,45,0.7,1.6,88,0.00,,,0.01,pywws,2013-03-09 14:24:00,
2013-03-09 14:29:00,40.6,37.1,30.54,West,270,1.6,3.1,87,0.00,,,0.01,pywws,2013-03-09 14:29:00,
2013-03-09 14:34:00,40.8,37.5,30.54,NW,315,1.6,3.8,88,0.00,,,0.01,pywws,2013-03-09 14:34:00,
2013-03-09 14:39:00,40.8,37.5,30.54,NW,315,1.6,3.8,88,0.00,,,0.01,pywws,2013-03-09 14:39:00,
2013-03-09 14:44:00,41.0,37.7,30.54,West,270,1.6,4.5,88,0.00,,,0.01,pywws,2013-03-09 14:44:00,
2013-03-09 14:49:00,40.8,37.5,30.54,SE,135,1.6,3.8,88,0.00,,,0.01,pywws,2013-03-09 14:49:00,
2013-03-09 14:54:00,40.8,37.5,30.54,West,270,2.2,4.5,88,0.00,,,0.01,pywws,2013-03-09 14:54:00,
2013-03-09 14:59:00,40.8,37.5,30.54,NE,45,1.6,3.8,88,0.00,,,0.01,pywws,2013-03-09 14:59:00,
2013-03-09 15:04:00,40.8,37.5,30.54,NW,315,2.2,4.5,88,0.00,,,0.01,pywws,2013-03-09 15:04:00,
2013-03-09 15:09:00,40.6,37.4,30.54,North,0,0.7,3.1,88,0.00,,,0.01,pywws,2013-03-09 15:09:00,
2013-03-09 15:14:00,40.8,37.5,30.54,NE,45,2.2,4.5,88,0.00,,,0.01,pywws,2013-03-09 15:14:00,
2013-03-09 15:19:00,40.8,37.5,30.54,NNE,22,2.2,4.5,88,0.00,,,0.01,pywws,2013-03-09 15:19:00,
2013-03-09 15:24:00,40.8,37.5,30.54,North,-999,0.7,4.5,88,0.00,,,0.01,pywws,2013-03-09 15:24:00,
2013-03-09 15:29:00,40.8,37.5,30.55,NW,315,1.6,3.8,88,0.00,,,0.01,pywws,2013-03-09 15:29:00,
2013-03-09 15:34:00,40.8,37.5,30.55,NE,45,0.7,3.1,88,0.00,,,0.01,pywws,2013-03-09 15:34:00,
2013-03-09 15:39:00,40.8,37.5,30.55,NE,45,0.7,3.1,88,0.00,,,0.01,pywws,2013-03-09 15:39:00,
2013-03-09 15:44:00,40.8,37.5,30.55,North,0,1.6,3.8,88,0.00,,,0.01,pywws,2013-03-09 15:44:00,
2013-03-09 15:49:00,40.8,37.5,30.55,North,0,2.2,4.5,88,0.00,,,0.01,pywws,2013-03-09 15:49:00,
2013-03-09 15:54:00,40.8,37.5,30.55,West,270,2.2,3.8,88,0.00,,,0.01,pywws,2013-03-09 15:54:00,
2013-03-09 15:59:00,40.6,37.4,30.54,North,0,3.1,5.4,88,0.00,,,0.01,pywws,2013-03-09 15:59:00,
2013-03-09 16:04:00,41.0,37.7,30.54,West,270,1.6,3.1,88,0.00,,,0.01,pywws,2013-03-09 16:04:00,
2013-03-09 16:09:00,40.8,37.3,30.54,NW,315,0.7,2.2,87,0.00,,,0.01,pywws,2013-03-09 16:09:00,
2013-03-09 16:14:00,40.6,37.1,30.54,North,0,3.1,6.0,87,0.00,,,0.01,pywws,2013-03-09 16:14:00,
2013-03-09 16:19:00,40.8,37.3,30.55,North,0,0.7,3.1,87,0.00,,,0.01,pywws,2013-03-09 16:19:00,
2013-03-09 16:24:00,40.6,37.1,30.55,NW,315,0.7,2.2,87,0.00,,,0.01,pywws,2013-03-09 16:24:00,
2013-03-09 16:29:00,40.6,37.1,30.55,North,0,0.7,3.1,87,0.00,,,0.01,pywws,2013-03-09 16:29:00,
2013-03-09 16:34:00,40.8,37.3,30.55,WNW,292,2.2,5.4,87,0.00,,,0.01,pywws,2013-03-09 16:34:00,
2013-03-09 16:39:00,40.8,37.3,30.55,WNW,292,2.2,5.4,87,0.00,,,0.01,pywws,2013-03-09 16:39:00,
2013-03-09 16:44:00,40.6,37.4,30.55,SE,135,1.6,4.5,88,0.00,,,0.01,pywws,2013-03-09 16:44:00,
2013-03-09 16:49:00,40.8,37.5,30.55,North,0,0.7,3.1,88,0.00,,,0.01,pywws,2013-03-09 16:49:00,
2013-03-09 16:54:00,40.6,37.4,30.55,NE,45,0.7,3.1,88,0.00,,,0.01,pywws,2013-03-09 16:54:00,
2013-03-09 16:59:00,40.6,37.4,30.55,NE,45,1.6,3.8,88,0.00,,,0.01,pywws,2013-03-09 16:59:00,
2013-03-09 17:04:00,40.6,37.4,30.55,North,0,1.6,3.8,88,0.00,,,0.01,pywws,2013-03-09 17:04:00,
2013-03-09 17:09:00,40.8,37.3,30.55,NE,45,1.6,3.8,87,0.00,,,0.01,pywws,2013-03-09 17:09:00,
2013-03-09 17:14:00,40.8,37.3,30.55,North,0,1.6,5.4,87,0.00,,,0.01,pywws,2013-03-09 17:14:00,
2013-03-09 17:19:00,40.6,37.1,30.55,NE,45,2.2,5.4,87,0.00,,,0.01,pywws,2013-03-09 17:19:00,
2013-03-09 17:24:00,40.6,37.1,30.55,SE,135,0.7,3.8,87,0.00,,,0.01,pywws,2013-03-09 17:24:00,
2013-03-09 17:29:00,40.6,37.1,30.55,WNW,292,0.7,3.1,87,0.00,,,0.01,pywws,2013-03-09 17:29:00,
2013-03-09 17:34:00,40.8,37.3,30.55,North,0,1.6,3.8,87,0.00,,,0.01,pywws,2013-03-09 17:34:00,
2013-03-09 17:39:00,40.8,37.3,30.56,North,0,1.6,3.8,87,0.00,,,0.01,pywws,2013-03-09 17:39:00,
2013-03-09 17:44:00,40.8,37.3,30.56,North,0,0.7,2.2,87,0.00,,,0.01,pywws,2013-03-09 17:44:00,
2013-03-09 17:49:00,40.6,37.1,30.56,West,270,0.7,2.2,87,0.00,,,0.01,pywws,2013-03-09 17:49:00,
2013-03-09 17:54:00,40.6,37.1,30.56,NNE,22,0.7,3.1,87,0.00,,,0.01,pywws,2013-03-09 17:54:00,
2013-03-09 17:59:00,40.6,37.1,30.56,North,-999,0.0,1.6,87,0.00,,,0.01,pywws,2013-03-09 17:59:00,
2013-03-09 18:04:00,40.6,37.1,30.56,NE,45,2.2,4.5,87,0.00,,,0.01,pywws,2013-03-09 18:04:00,
2013-03-09 18:09:00,40.6,37.1,30.56,North,0,1.6,3.1,87,0.00,,,0.01,pywws,2013-03-09 18:09:00,
2013-03-09 18:14:00,40.6,37.1,30.56,North,0,1.6,3.1,87,0.00,,,0.01,pywws,2013-03-09 18:14:00,
2013-03-09 18:19:00,40.8,37.3,30.56,North,-999,0.0,0.7,87,0.00,,,0.01,pywws,2013-03-09 18:19:00,
2013-03-09 18:24:00,40.5,36.9,30.57,North,0,0.7,3.1,87,0.00,,,0.01,pywws,2013-03-09 18:24:00,
2013-03-09 18:29:00,40.6,37.1,30.56,NW,315,2.2,4.5,87,0.00,,,0.01,pywws,2013-03-09 18:29:00,
2013-03-09 18:34:00,40.5,36.9,30.57,NE,45,0.7,2.2,87,0.00,,,0.01,pywws,2013-03-09 18:34:00,
2013-03-09 18:39:00,40.5,36.9,30.57,NE,45,0.7,2.2,87,0.00,,,0.01,pywws,2013-03-09 18:39:00,
2013-03-09 18:44:00,40.6,36.8,30.57,North,0,1.6,3.8,86,0.00,,,0.01,pywws,2013-03-09 18:44:00,
2013-03-09 18:49:00,40.6,36.8,30.57,North,0,0.7,2.2,86,0.00,,,0.01,pywws,2013-03-09 18:49:00,
2013-03-09 18:54:00,40.6,36.8,30.57,NNE,22,1.6,3.8,86,0.00,,,0.01,pywws,2013-03-09 18:54:00,
2013-03-09 18:59:00,40.5,36.6,30.58,West,270,0.7,1.6,86,0.00,,,0.01,pywws,2013-03-09 18:59:00,
2013-03-09 19:04:00,40.5,36.6,30.58,North,-999,0.0,0.7,86,0.00,,,0.01,pywws,2013-03-09 19:04:00,
2013-03-09 19:09:00,40.5,36.6,30.58,North,0,0.7,3.1,86,0.00,,,0.01,pywws,2013-03-09 19:09:00,
2013-03-09 19:14:00,40.5,36.6,30.58,NW,315,0.7,3.8,86,0.00,,,0.01,pywws,2013-03-09 19:14:00,
2013-03-09 19:19:00,40.5,36.6,30.58,West,270,1.6,6.0,86,0.00,,,0.01,pywws,2013-03-09 19:19:00,
2013-03-09 19:24:00,40.5,36.6,30.58,North,0,2.2,9.2,86,0.00,,,0.01,pywws,2013-03-09 19:24:00,
2013-03-09 19:29:00,40.3,36.4,30.58,West,270,0.7,6.0,86,0.00,,,0.01,pywws,2013-03-09 19:29:00,
2013-03-09 19:34:00,40.5,36.6,30.58,NW,315,2.2,8.3,86,0.00,,,0.01,pywws,2013-03-09 19:34:00,
2013-03-09 19:39:00,40.5,36.6,30.58,NW,315,2.2,8.3,86,0.00,,,0.01,pywws,2013-03-09 19:39:00,
2013-03-09 19:44:00,40.3,36.4,30.59,NE,45,1.6,4.5,86,0.00,,,0.01,pywws,2013-03-09 19:44:00,
2013-03-09 19:49:00,40.3,36.7,30.59,SW,225,1.6,3.8,87,0.00,,,0.01,pywws,2013-03-09 19:49:00,
2013-03-09 19:54:00,40.3,36.7,30.58,SW,225,1.6,3.1,87,0.00,,,0.01,pywws,2013-03-09 19:54:00,
2013-03-09 19:59:00,40.1,36.5,30.58,North,0,0.7,3.1,87,0.00,,,0.01,pywws,2013-03-09 19:59:00,
2013-03-09 20:04:00,40.1,36.5,30.59,North,-999,0.0,1.6,87,0.00,,,0.01,pywws,2013-03-09 20:04:00,
2013-03-09 20:09:00,40.3,36.7,30.58,North,0,2.2,7.6,87,0.00,,,0.01,pywws,2013-03-09 20:09:00,
2013-03-09 20:14:00,39.9,36.4,30.58,North,0,4.5,8.3,87,0.00,,,0.01,pywws,2013-03-09 20:14:00,
2013-03-09 20:19:00,40.1,36.5,30.58,North,0,3.1,7.6,87,0.00,,,0.01,pywws,2013-03-09 20:19:00,
2013-03-09 20:24:00,40.1,36.5,30.58,NE,45,1.6,4.5,87,0.00,,,0.01,pywws,2013-03-09 20:24:00,
2013-03-09 20:29:00,40.1,36.8,30.58,NW,315,1.6,3.8,88,0.00,,,0.01,pywws,2013-03-09 20:29:00,
2013-03-09 20:34:00,39.9,36.7,30.59,NW,315,0.7,3.1,88,0.00,,,0.01,pywws,2013-03-09 20:34:00,
2013-03-09 20:39:00,39.9,36.7,30.59,NW,315,0.7,3.1,88,0.00,,,0.01,pywws,2013-03-09 20:39:00,
2013-03-09 20:44:00,39.9,36.7,30.59,NW,315,2.2,5.4,88,0.00,,,0.01,pywws,2013-03-09 20:44:00,
2013-03-09 20:49:00,40.1,36.8,30.59,West,270,1.6,3.1,88,0.00,,,0.01,pywws,2013-03-09 20:49:00,
2013-03-09 20:54:00,39.9,36.7,30.59,North,0,1.6,3.1,88,0.00,,,0.01,pywws,2013-03-09 20:54:00,
2013-03-09 20:59:00,39.9,36.7,30.59,NE,45,2.2,6.0,88,0.00,,,0.01,pywws,2013-03-09 20:59:00,
2013-03-09 21:04:00,39.7,36.5,30.59,North,0,1.6,6.0,88,0.00,,,0.01,pywws,2013-03-09 21:04:00,
2013-03-09 21:09:00,39.7,36.5,30.59,NW,315,2.2,5.4,88,0.00,,,0.01,pywws,2013-03-09 21:09:00,
2013-03-09 21:14:00,39.6,36.3,30.59,North,0,3.8,6.9,88,0.00,,,0.01,pywws,2013-03-09 21:14:00,
2013-03-09 21:19:00,39.7,36.8,30.58,North,0,2.2,3.8,89,0.00,,,0.01,pywws,2013-03-09 21:19:00,
2013-03-09 21:24:00,39.7,36.8,30.58,NW,315,2.2,5.4,89,0.00,,,0.01,pywws,2013-03-09 21:24:00,
2013-03-09 21:29:00,39.7,36.8,30.59,NE,45,1.6,2.2,89,0.00,,,0.01,pywws,2013-03-09 21:29:00,
2013-03-09 21:34:00,39.6,36.6,30.59,NW,315,0.7,3.8,89,0.00,,,0.01,pywws,2013-03-09 21:34:00,
2013-03-09 21:39:00,39.6,36.6,30.59,NW,315,0.7,3.8,89,0.00,,,0.01,pywws,2013-03-09 21:39:00,
2013-03-09 21:44:00,45.1,42.1,30.59,North,0,1.6,5.4,89,0.00,,,0.01,pywws,2013-03-09 21:44:00,
2013-03-09 21:49:00,39.4,36.7,30.59,North,0,1.6,4.5,90,0.00,,,0.01,pywws,2013-03-09 21:49:00,
2013-03-09 21:54:00,39.4,36.7,30.59,South,180,1.6,3.1,90,0.00,,,0.01,pywws,2013-03-09 21:54:00,
2013-03-09 21:59:00,39.4,36.7,30.58,NE,45,2.2,6.0,90,0.00,,,0.01,pywws,2013-03-09 21:59:00,
2013-03-09 22:04:00,39.4,36.7,30.59,WNW,292,1.6,4.5,90,0.00,,,0.01,pywws,2013-03-09 22:04:00,
2013-03-09 22:09:00,39.4,36.4,30.59,North,0,1.6,6.0,89,0.00,,,0.01,pywws,2013-03-09 22:09:00,
2013-03-09 22:14:00,39.4,36.4,30.59,South,180,0.7,2.2,89,0.00,,,0.01,pywws,2013-03-09 22:14:00,
2013-03-09 22:19:00,39.4,36.4,30.59,North,0,3.1,8.3,89,0.00,,,0.01,pywws,2013-03-09 22:19:00,
2013-03-09 22:24:00,39.4,36.4,30.59,North,0,1.6,3.8,89,0.00,,,0.01,pywws,2013-03-09 22:24:00,
2013-03-09 22:29:00,39.4,36.4,30.59,South,180,1.6,3.8,89,0.00,,,0.01,pywws,2013-03-09 22:29:00,
2013-03-09 22:34:00,39.6,36.6,30.59,NNE,22,2.2,7.6,89,0.00,,,0.01,pywws,2013-03-09 22:34:00,
2013-03-09 22:39:00,39.6,36.6,30.59,NNE,22,2.2,7.6,89,0.00,,,0.01,pywws,2013-03-09 22:39:00,
2013-03-09 22:44:00,39.4,36.4,30.59,North,0,1.6,3.1,89,0.00,,,0.01,pywws,2013-03-09 22:44:00,
2013-03-09 22:49:00,39.4,36.4,30.59,North,0,3.1,8.3,89,0.00,,,0.01,pywws,2013-03-09 22:49:00,
2013-03-09 22:54:00,39.2,36.2,30.59,North,0,1.6,4.5,89,0.00,,,0.01,pywws,2013-03-09 22:54:00,
2013-03-09 22:59:00,39.4,36.4,30.59,NW,315,0.7,3.1,89,0.00,,,0.01,pywws,2013-03-09 22:59:00,
2013-03-09 23:04:00,39.2,36.2,30.59,North,0,1.6,3.8,89,0.00,,,0.01,pywws,2013-03-09 23:04:00,
2013-03-09 23:09:00,45.3,42.6,30.60,North,0,3.1,5.4,90,0.00,,,0.01,pywws,2013-03-09 23:09:00,
2013-03-09 23:14:00,39.0,36.3,30.59,NW,315,1.6,3.8,90,0.00,,,0.01,pywws,2013-03-09 23:14:00,
2013-03-09 23:19:00,39.0,36.3,30.60,NE,45,0.7,4.5,90,0.00,,,0.01,pywws,2013-03-09 23:19:00,
2013-03-09 23:24:00,38.8,36.2,30.60,NW,315,0.7,4.5,90,0.00,,,0.01,pywws,2013-03-09 23:24:00,
2013-03-09 23:29:00,38.5,36.1,30.60,NW,315,1.6,3.1,91,0.00,,,0.01,pywws,2013-03-09 23:29:00,
2013-03-09 23:34:00,38.7,36.3,30.60,North,0,0.7,3.1,91,0.00,,,0.01,pywws,2013-03-09 23:34:00,
2013-03-09 23:39:00,38.5,36.1,30.60,NW,315,1.6,3.1,91,0.00,,,0.01,pywws,2013-03-09 23:39:00,
2013-03-09 23:44:00,38.5,36.1,30.60,NE,45,2.2,3.8,91,0.00,,,0.01,pywws,2013-03-09 23:44:00,
2013-03-09 23:49:00,38.5,36.1,30.60,South,180,0.7,2.2,91,0.00,,,0.01,pywws,2013-03-09 23:49:00,
2013-03-09 23:54:00,38.3,35.9,30.60,West,270,1.6,4.5,91,0.00,,,0.01,pywws,2013-03-09 23:54:00,
2013-03-09 23:59:00,38.3,35.9,30.60,North,0,0.7,2.2,91,0.00,,,0.01,pywws,2013-03-09 23:59:00,